Location: Chuathbaluk
(61.5726°N, 159.2454°W)
Time: 01:55:06
(UTC+00:00)

TIGRISAT - Pass Details

Date: 18 January 2021
Orbit: 605 x 688 km, 97.7° (Epoch: 05 March)

Event Time Altitude Azimuth Distance (km) Brightness Sun altitude
Rises 15:05:41 0° 107° (ESE) 2,876 ? -29.9°
Reaches altitude 10° 15:08:24 10° 88° (E) 1,984 ? -29.6°
Maximum altitude 15:11:19 18° 46° (NE) 1,532 ? -29.2°
Drops below altitude 10° 15:14:17 10° 3° (N) 2,017 ? -28.9°
Enters shadow 15:14:27 - 1° (N) 2,065 ? -28.9°
